EXS62BW EGNT-GCTS

Flight info

Callsign EXS62BW
Flight time N/A
Altitude 33000
Route GIRLI P18 GASKO P16 RIBEL UP16 NOKIN/N0444F350 N862 KARNO/N0438F340 DCT KISWO DCT INFEC DCT UNFIT DCT TALIG/N0451F350 DCT KORUL DCT DEMOS DCT BEXAL/N0447F370 UN866 KONBA
Aircraft B738/M-SDE2E3FGHIRWXY/LB1

Departure

Time 2026-05-04 11:19
Airport Newcastle International Airport (EGNT)

Arrival

Time N/A
Airport Tenerife Sur Airport (GCTS)
Time Latitude Longitude Altitude Speed Heading
2026-05-04 10:49 55.03739 -1.70760 266 ft 0 kts 184°
2026-05-04 11:01 55.03793 -1.70756 266 ft 4 kts 162°
2026-05-04 11:02 55.03809 -1.70779 266 ft 4 kts 98°
2026-05-04 11:02 55.03811 -1.70806 266 ft 0 kts 94°
2026-05-04 11:05 55.03808 -1.70740 266 ft 6 kts 94°
2026-05-04 11:06 55.03804 -1.70643 266 ft 9 kts 94°
2026-05-04 11:06 55.03800 -1.70533 266 ft 9 kts 94°
2026-05-04 11:06 55.03778 -1.70436 266 ft 9 kts 143°
2026-05-04 11:06 55.03720 -1.70431 266 ft 8 kts 184°
2026-05-04 11:08 55.03605 -1.70477 266 ft 0 kts 227°
2026-05-04 11:10 55.03570 -1.70626 266 ft 9 kts 34°
2026-05-04 11:12 55.03775 -1.69919 259 ft 8 kts 86°
2026-05-04 11:12 55.03783 -1.69821 258 ft 8 kts 72°
2026-05-04 11:12 55.03799 -1.69728 257 ft 8 kts 73°
2026-05-04 11:12 55.03811 -1.69637 256 ft 8 kts 77°
2026-05-04 11:13 55.03825 -1.69548 256 ft 7 kts 70°
2026-05-04 11:13 55.03844 -1.69465 255 ft 7 kts 66°
2026-05-04 11:13 55.03865 -1.69388 254 ft 7 kts 64°
2026-05-04 11:13 55.03886 -1.69312 253 ft 7 kts 64°
2026-05-04 11:14 55.03907 -1.69235 253 ft 7 kts 64°
2026-05-04 11:14 55.03930 -1.69152 252 ft 11 kts 64°
2026-05-04 11:14 55.03976 -1.68970 250 ft 21 kts 66°
2026-05-04 11:16 55.04334 -1.67571 242 ft 10 kts 89°
2026-05-04 11:16 55.04327 -1.67447 240 ft 10 kts 103°
2026-05-04 11:16 55.04281 -1.67366 240 ft 10 kts 163°
2026-05-04 11:17 55.04213 -1.67399 241 ft 14 kts 238°
2026-05-04 11:17 55.04103 -1.67809 246 ft 74 kts 245°
2026-05-04 11:19 54.99082 -1.78033 3704 ft 206 kts 196°
2026-05-04 11:19 54.97670 -1.78877 3953 ft 222 kts 197°
2026-05-04 11:19 54.96157 -1.79788 4193 ft 238 kts 197°
2026-05-04 11:19 54.94519 -1.80780 4376 ft 260 kts 198°
2026-05-04 11:20 54.92754 -1.81854 4809 ft 274 kts 198°
2026-05-04 11:20 54.90939 -1.82965 5486 ft 276 kts 198°
2026-05-04 11:20 54.89129 -1.84075 6241 ft 277 kts 198°
2026-05-04 11:20 54.87305 -1.85192 6931 ft 278 kts 198°
2026-05-04 11:22 54.74135 -1.82774 10590 ft 326 kts 155°
2026-05-04 11:22 54.72035 -1.81168 10859 ft 339 kts 163°
2026-05-04 11:23 54.69659 -1.80704 11398 ft 342 kts 187°
2026-05-04 11:23 54.67314 -1.81375 12100 ft 342 kts 191°